Regional Weather Roundup
Issued by NWS

Home | Current Version | Previous Version | Graphics & Text | Print | Product List | Glossary Off
Versions: 1 2 3 4 5 6 7 8 9 10 11 12 13 14 15 16 17 18 19 20 21 22 23 24 25 26 27 28 29 30 31 32 33 34 35 36 37 38 39 40 41 42 43 44 45 46 47 48 49 50

000
ASUS43 KTOP 171108
RWRKS

WEATHER ROUNDUP FOR KANSAS
NATIONAL WEATHER SERVICE GOODLAND KS
500 AM CST TUE JAN 17 2017

NOTE:  "FAIR" INDICATES FEW OR NO CLOUDS BELOW 12,000 FEET WITH NO
SIGNIFICANT WEATHER AND/OR OBSTRUCTIONS TO VISIBILITY.

KSZ001>006-013>018-027>032-041>047-171200-
NORTHWEST KANSAS

CITY           SKY/WX    TMP DP  RH WIND       PRES   REMARKS
GOODLAND       CLEAR     24  20  84 W9        30.09S
HAYS           PTCLDY    33  28  81 NW9       30.09F
HILL CITY      PTCLDY    30  26  85 W7        30.10S
RUSSELL        CLOUDY    32  28  85 NW8       30.07S
$$

KSZ061>065-074>080-084>089-171200-
SOUTHWEST KANSAS

CITY           SKY/WX    TMP DP  RH WIND       PRES   REMARKS
DODGE CITY     CLOUDY    33  30  88 NW14      30.09S WCI  23
ELKHART          N/A     32  25  76 NW10        N/A  WCI  24
GARDEN CITY    CLOUDY    33  29  85 W7        30.11S
GREAT BEND     PTCLDY    33  29  85 NW12      30.09S WCI  24
LIBERAL        CLOUDY    36  28  75 NW10      30.13S WCI  28
PRATT          CLEAR     29  28  93 NW7       30.09S
$$

KSZ066>073-081>083-090>101-171200-
SOUTHEAST KANSAS

CITY           SKY/WX    TMP DP  RH WIND       PRES   REMARKS
CHANUTE        CLOUDY    36  34  92 W9        30.06S
HUTCHINSON     CLOUDY    35  32  88 W7        30.07S
MEDICINE LODGE   N/A     32  29  88 W7        30.10S
NEWTON         CLOUDY    33  32  96 NW9       30.06F
PARSONS        CLOUDY    37  35  92 W7        30.08R FOG
WICHITA INTL   CLOUDY    36  33  89 NW8       30.07F
WICHITA JABRA  CLOUDY    34  33  96 NW10      30.06F WCI  26
WICHITA MCCONL MOCLDY    35  32  90 NW8       30.07S
WINFIELD       CLOUDY    37  33  85 NW12      30.09S WCI  29
$$

KSZ007>012-019>026-033>040-048>060-102>105-171200-
NORTHEAST KANSAS

CITY           SKY/WX    TMP DP  RH WIND       PRES   REMARKS
CONCORDIA      PTCLDY    31  28  89 NW8       30.05S
EMPORIA        CLOUDY    34  34 100 NW9       30.05R FOG
LAWRENCE       CLOUDY    35  34  96 W9        30.04S FOG
MANHATTAN      CLOUDY    34  31  88 W5        30.06R
MARYSVILLE     CLOUDY    32  32 100 NW6       30.02S
OLATHE IND     CLOUDY    34  33  96 NW12      30.02S FOG     WCI  25
OLATHE EXE     CLOUDY    33  33 100 NW9       30.01R FOG
SALINA           N/A    N/A N/A N/A MISG        N/A
TOPEKA BILLARD CLOUDY    35  31  85 W6        30.05R
TOPEKA FORBES  CLOUDY    35  33  92 W8        30.04R
$$



USA.gov is the U.S. government's official web portal to all federal, state and local government web resources and services.